Terminal Aerodrome Forecast
Issued by NWS

Home | Current Version | Previous Version | Text Only | Print | Product List | Glossary On
Versions: 1 2 3 4 5 6 7 8 9 10 11 12 13 14 15 16 17 18 19 20 21 22 23 24 25 26 27 28 29
000
FTUS44 KEWX 222340
TAFSSF
TAF
KSSF 222340Z 2300/2324 11012KT P6SM VCSH SCT050
     FM230100 12009KT P6SM SCT050
     FM230700 12005KT P6SM OVC012
     FM231500 13007KT P6SM OVC020
     FM231700 12010KT P6SM BKN040=

USA.gov is the U.S. government's official web portal to all federal, state and local government web resources and services.